NKS1833 KDTW-KDFW

Flight info

Callsign NKS1833
Flight time 2h 16m
Altitude 36000
Route SNDRS3 BGHRT STL KK45I FSM KOMMA RRNET SEEVR4
Aircraft A320/M-SDE3FGHIRWY/LB1

Departure

Time 2026-05-04 10:40
Airport Detroit Metropolitan Wayne County Airport (KDTW)

Arrival

Time 2026-05-04 12:56
Airport Dallas Fort Worth International Airport (KDFW)
Time Latitude Longitude Altitude Speed Heading
2026-05-04 10:28 42.22448 -83.35011 646 ft 0 kts 119°
2026-05-04 10:34 42.22456 -83.35028 647 ft 4 kts 118°
2026-05-04 10:34 42.22466 -83.35053 648 ft 3 kts 117°
2026-05-04 10:34 42.22473 -83.35084 646 ft 4 kts 71°
2026-05-04 10:35 42.22459 -83.35106 646 ft 4 kts 32°
2026-05-04 10:35 42.22449 -83.35114 646 ft 0 kts 32°
2026-05-04 10:37 42.22450 -83.35113 648 ft 1 kts 32°
2026-05-04 10:37 42.22463 -83.35103 646 ft 3 kts 32°
2026-05-04 10:39 42.22575 -83.35262 647 ft 3 kts 301°
2026-05-04 10:39 42.22592 -83.35359 647 ft 15 kts 235°
2026-05-04 10:39 42.22508 -83.35451 650 ft 16 kts 210°
2026-05-04 10:40 42.22294 -83.35608 648 ft 73 kts 208°
2026-05-04 10:40 42.21615 -83.36107 646 ft 144 kts 208°
2026-05-04 10:40 42.20621 -83.36837 1008 ft 171 kts 208°
2026-05-04 10:40 42.19546 -83.37623 1666 ft 178 kts 208°
2026-05-04 10:41 42.18465 -83.38409 2118 ft 178 kts 208°
2026-05-04 10:41 42.17323 -83.39243 2268 ft 194 kts 208°
2026-05-04 10:41 42.16170 -83.40277 2438 ft 207 kts 220°
2026-05-04 10:41 42.15020 -83.41561 2557 ft 229 kts 220°
2026-05-04 10:42 42.13730 -83.42996 2934 ft 248 kts 220°
2026-05-04 10:42 42.12994 -83.43811 3428 ft 250 kts 220°
2026-05-04 10:42 42.12338 -83.44536 3879 ft 251 kts 220°
2026-05-04 10:42 42.10979 -83.46032 4760 ft 254 kts 220°
2026-05-04 10:43 42.09591 -83.47552 5560 ft 260 kts 220°
2026-05-04 10:44 41.99044 -83.58489 9912 ft 287 kts 210°
2026-05-04 10:45 41.97215 -83.59784 10256 ft 308 kts 210°
2026-05-04 10:45 41.95244 -83.61178 10447 ft 331 kts 210°
2026-05-04 10:45 41.93172 -83.62642 10938 ft 341 kts 210°
2026-05-04 10:45 41.91059 -83.64127 11590 ft 345 kts 210°
2026-05-04 10:46 41.88919 -83.65627 12236 ft 349 kts 210°
2026-05-04 10:46 41.86760 -83.67139 12870 ft 352 kts 210°
2026-05-04 10:46 41.84582 -83.68669 13482 ft 355 kts 210°
2026-05-04 10:46 41.82385 -83.70213 14085 ft 358 kts 210°
2026-05-04 10:47 41.80168 -83.71776 14674 ft 362 kts 210°
2026-05-04 10:47 41.77929 -83.73354 15250 ft 365 kts 210°
2026-05-04 10:47 41.75668 -83.74942 15809 ft 368 kts 210°
2026-05-04 10:47 41.73390 -83.76537 16372 ft 371 kts 210°
2026-05-04 10:49 41.57395 -83.89019 20018 ft 391 kts 214°
2026-05-04 10:49 41.55061 -83.90911 20497 ft 394 kts 214°
2026-05-04 10:50 41.52695 -83.92812 20964 ft 397 kts 214°
2026-05-04 10:51 41.35705 -84.06348 23891 ft 416 kts 214°
2026-05-04 10:52 41.33213 -84.08327 24289 ft 418 kts 214°
2026-05-04 10:52 41.30705 -84.10318 24685 ft 420 kts 214°
2026-05-04 10:52 41.28259 -84.12451 25053 ft 420 kts 221°
2026-05-04 10:54 41.18703 -84.35927 27527 ft 424 kts 250°
2026-05-04 10:54 41.17607 -84.39573 27868 ft 426 kts 250°
2026-05-04 10:56 41.09968 -84.65551 30279 ft 431 kts 259°
2026-05-04 10:56 41.09321 -84.69427 30693 ft 429 kts 259°
2026-05-04 10:56 41.08689 -84.73239 31107 ft 428 kts 259°
2026-05-04 10:57 41.08045 -84.77088 31528 ft 427 kts 259°
2026-05-04 10:57 41.07393 -84.80935 31952 ft 426 kts 259°
2026-05-04 10:57 41.06740 -84.84757 32360 ft 425 kts 259°
2026-05-04 10:57 41.06085 -84.88573 32760 ft 423 kts 259°
2026-05-04 10:58 41.05433 -84.92373 33169 ft 422 kts 259°
2026-05-04 10:58 41.04790 -84.96123 33554 ft 421 kts 259°
2026-05-04 10:58 41.04144 -84.99900 33928 ft 420 kts 259°
2026-05-04 10:58 41.03499 -85.03670 34297 ft 419 kts 259°
2026-05-04 10:59 41.02853 -85.07430 34644 ft 418 kts 259°
2026-05-04 10:59 41.02206 -85.11189 34964 ft 418 kts 259°
2026-05-04 10:59 41.01563 -85.14942 35265 ft 418 kts 259°
2026-05-04 10:59 41.00919 -85.18701 35560 ft 418 kts 259°
2026-05-04 11:00 41.00271 -85.22460 35778 ft 419 kts 259°
2026-05-04 11:02 40.94970 -85.52871 35842 ft 425 kts 259°
2026-05-04 11:05 40.86382 -86.09020 35842 ft 425 kts 263°
2026-05-04 11:06 40.85545 -86.16742 35840 ft 425 kts 263°
2026-05-04 11:06 40.84709 -86.24461 35840 ft 425 kts 263°
2026-05-04 11:10 40.78683 -86.78446 35840 ft 425 kts 263°
2026-05-04 11:12 40.75131 -87.09253 35847 ft 425 kts 263°
2026-05-04 11:12 40.74227 -87.16963 35848 ft 426 kts 263°
2026-05-04 11:13 40.73322 -87.24689 35850 ft 425 kts 263°
2026-05-04 11:13 40.72420 -87.32349 35844 ft 425 kts 262°
2026-05-04 11:14 40.72265 -87.33649 35847 ft 425 kts 262°
2026-05-04 11:16 40.67781 -87.70812 35838 ft 424 kts 262°
2026-05-04 11:16 40.66845 -87.78428 35836 ft 424 kts 262°
2026-05-04 11:17 40.65895 -87.86083 35834 ft 423 kts 262°
2026-05-04 11:19 40.54658 -88.08651 35828 ft 431 kts 231°
2026-05-04 11:19 40.52666 -88.11598 35830 ft 431 kts 231°
2026-05-04 11:19 40.48681 -88.17493 35829 ft 431 kts 231°
2026-05-04 11:20 40.44684 -88.23370 35828 ft 431 kts 231°
2026-05-04 11:20 40.40693 -88.29225 35823 ft 430 kts 231°
2026-05-04 11:22 40.24709 -88.52611 35825 ft 430 kts 231°
2026-05-04 11:23 40.20733 -88.58399 35826 ft 430 kts 231°
2026-05-04 11:25 40.06707 -88.78746 35822 ft 430 kts 231°
2026-05-04 11:25 40.02690 -88.84535 35821 ft 430 kts 231°
2026-05-04 11:27 39.84606 -89.10493 35847 ft 429 kts 231°
2026-05-04 11:28 39.80582 -89.16244 35846 ft 429 kts 231°
2026-05-04 11:28 39.76561 -89.21974 35841 ft 428 kts 231°
2026-05-04 11:29 39.72568 -89.27659 35840 ft 429 kts 231°
2026-05-04 11:29 39.68539 -89.33380 35838 ft 429 kts 231°
2026-05-04 11:33 39.40259 -89.73241 35857 ft 429 kts 230°
2026-05-04 11:33 39.36212 -89.78915 35860 ft 429 kts 230°
2026-05-04 11:34 39.32155 -89.84582 35861 ft 429 kts 230°
2026-05-04 11:34 39.28096 -89.90240 35859 ft 429 kts 230°
2026-05-04 11:35 39.24039 -89.95887 35863 ft 429 kts 230°
2026-05-04 11:35 39.19974 -90.01533 35859 ft 429 kts 230°
2026-05-04 11:36 39.15908 -90.07165 35871 ft 429 kts 230°
2026-05-04 11:36 39.11840 -90.12789 35867 ft 429 kts 230°
2026-05-04 11:37 39.07796 -90.18376 35861 ft 428 kts 230°
2026-05-04 11:37 39.03736 -90.23992 35873 ft 429 kts 230°
2026-05-04 11:38 38.99662 -90.29599 35862 ft 429 kts 230°
2026-05-04 11:38 38.95591 -90.35181 35863 ft 428 kts 230°
2026-05-04 11:39 38.91512 -90.40770 35858 ft 429 kts 230°
2026-05-04 11:41 38.76373 -90.59313 35881 ft 431 kts 225°
2026-05-04 11:41 38.71890 -90.64420 35881 ft 431 kts 225°
2026-05-04 11:42 38.67406 -90.69517 35869 ft 431 kts 225°
2026-05-04 11:42 38.62952 -90.74575 35880 ft 431 kts 225°
2026-05-04 11:43 38.58473 -90.79655 35880 ft 430 kts 225°
2026-05-04 11:43 38.53993 -90.84731 35881 ft 430 kts 225°
2026-05-04 11:44 38.49512 -90.89798 35883 ft 430 kts 225°
2026-05-04 11:44 38.45029 -90.94851 35883 ft 429 kts 225°
2026-05-04 11:45 38.40541 -90.99897 35884 ft 430 kts 225°
2026-05-04 11:45 38.36054 -91.04934 35887 ft 430 kts 225°
2026-05-04 11:46 38.31567 -91.09971 35890 ft 429 kts 225°
2026-05-04 11:46 38.27080 -91.14996 35895 ft 429 kts 225°
2026-05-04 11:47 38.22618 -91.19982 35898 ft 430 kts 225°
2026-05-04 11:47 38.18129 -91.25001 35901 ft 430 kts 225°
2026-05-04 11:48 38.13634 -91.30011 35902 ft 430 kts 225°
2026-05-04 11:48 38.09139 -91.35010 35901 ft 429 kts 225°
2026-05-04 11:49 38.04636 -91.40005 35896 ft 430 kts 224°
2026-05-04 11:49 38.00128 -91.44993 35896 ft 430 kts 224°
2026-05-04 11:50 37.95619 -91.49984 35899 ft 430 kts 224°
2026-05-04 11:50 37.91110 -91.54966 35902 ft 430 kts 224°
2026-05-04 11:51 37.87353 -91.59108 35901 ft 430 kts 224°
2026-05-04 11:51 37.82107 -91.64889 35897 ft 430 kts 224°
2026-05-04 11:52 37.78318 -91.69055 35895 ft 430 kts 224°
2026-05-04 11:52 37.73829 -91.73984 35892 ft 430 kts 224°
2026-05-04 11:53 37.69313 -91.78932 35888 ft 430 kts 224°
2026-05-04 11:53 37.64775 -91.83882 35883 ft 431 kts 224°
2026-05-04 11:55 37.46660 -92.03670 35881 ft 431 kts 225°
2026-05-04 11:56 37.42213 -92.08644 35872 ft 430 kts 225°
2026-05-04 11:56 37.37743 -92.13662 35885 ft 430 kts 225°
2026-05-04 11:57 37.33255 -92.18652 35885 ft 431 kts 225°
2026-05-04 11:57 37.28755 -92.23623 35889 ft 431 kts 225°
2026-05-04 11:58 37.24253 -92.28610 35894 ft 431 kts 225°
2026-05-04 11:58 37.19764 -92.33587 35899 ft 431 kts 225°
2026-05-04 11:59 37.15267 -92.38564 35904 ft 431 kts 225°
2026-05-04 11:59 37.10791 -92.43495 35905 ft 431 kts 225°
2026-05-04 12:00 37.06269 -92.48461 35907 ft 431 kts 225°
2026-05-04 12:00 37.01756 -92.53414 35910 ft 431 kts 225°
2026-05-04 12:01 36.97246 -92.58362 35910 ft 431 kts 225°
2026-05-04 12:02 36.81447 -92.75628 35923 ft 432 kts 225°
2026-05-04 12:03 36.76920 -92.80558 35929 ft 432 kts 225°
2026-05-04 12:03 36.72380 -92.85490 35934 ft 432 kts 225°
2026-05-04 12:04 36.67843 -92.90412 35935 ft 432 kts 225°
2026-05-04 12:04 36.63334 -92.95306 35941 ft 433 kts 224°
2026-05-04 12:05 36.58785 -93.00227 35947 ft 433 kts 224°
2026-05-04 12:05 36.54227 -93.05138 35950 ft 433 kts 224°
2026-05-04 12:06 36.49670 -93.10042 35954 ft 433 kts 224°
2026-05-04 12:06 36.45125 -93.14933 35957 ft 432 kts 224°
2026-05-04 12:07 36.40576 -93.19831 35957 ft 433 kts 224°
2026-05-04 12:07 36.36049 -93.24687 35961 ft 433 kts 224°
2026-05-04 12:08 36.31492 -93.29569 35960 ft 433 kts 224°
2026-05-04 12:08 36.26932 -93.34446 35959 ft 433 kts 224°
2026-05-04 12:09 36.22367 -93.39318 35959 ft 433 kts 224°
2026-05-04 12:09 36.17800 -93.44191 35959 ft 433 kts 224°
2026-05-04 12:10 36.13229 -93.49051 35960 ft 433 kts 224°
2026-05-04 12:10 36.08657 -93.53904 35959 ft 433 kts 224°
2026-05-04 12:11 36.04088 -93.58753 35960 ft 433 kts 224°
2026-05-04 12:11 35.99544 -93.63575 35959 ft 433 kts 224°
2026-05-04 12:12 35.94973 -93.68420 35960 ft 433 kts 224°
2026-05-04 12:12 35.90398 -93.73249 35957 ft 433 kts 225°
2026-05-04 12:14 35.72049 -93.92525 35943 ft 434 kts 224°
2026-05-04 12:15 35.67448 -93.97354 35945 ft 434 kts 224°
2026-05-04 12:15 35.62842 -94.02171 35948 ft 434 kts 224°
2026-05-04 12:16 35.58269 -94.06943 35948 ft 435 kts 224°
2026-05-04 12:16 35.53657 -94.11749 35950 ft 435 kts 225°
2026-05-04 12:17 35.49039 -94.16562 35952 ft 435 kts 225°
2026-05-04 12:17 35.44414 -94.21369 35955 ft 435 kts 225°
2026-05-04 12:18 35.39795 -94.26167 35955 ft 435 kts 225°
2026-05-04 12:18 35.35215 -94.31007 35951 ft 434 kts 226°
2026-05-04 12:19 35.30751 -94.35921 35953 ft 434 kts 227°
2026-05-04 12:19 35.26265 -94.40877 35957 ft 434 kts 226°
2026-05-04 12:20 35.21749 -94.45800 35958 ft 434 kts 226°
2026-05-04 12:20 35.17225 -94.50708 35961 ft 434 kts 226°
2026-05-04 12:21 35.12701 -94.55604 35965 ft 434 kts 226°
2026-05-04 12:21 35.08197 -94.60470 35969 ft 434 kts 226°
2026-05-04 12:22 35.03672 -94.65363 35975 ft 435 kts 227°
2026-05-04 12:22 34.99140 -94.70260 35981 ft 435 kts 226°
2026-05-04 12:23 34.94580 -94.75121 35977 ft 435 kts 226°
2026-05-04 12:23 34.90004 -94.79958 35977 ft 436 kts 226°
2026-05-04 12:24 34.85424 -94.84799 35982 ft 436 kts 226°
2026-05-04 12:24 34.80850 -94.89634 35982 ft 436 kts 226°
2026-05-04 12:25 34.76218 -94.94405 35985 ft 436 kts 225°
2026-05-04 12:25 34.71550 -94.99137 35988 ft 436 kts 225°
2026-05-04 12:26 34.66887 -95.03861 35978 ft 437 kts 225°
2026-05-04 12:26 34.62230 -95.08602 35981 ft 437 kts 225°
2026-05-04 12:27 34.57606 -95.13306 35979 ft 437 kts 225°
2026-05-04 12:27 34.52943 -95.18036 35991 ft 437 kts 225°
2026-05-04 12:28 34.48276 -95.22763 35989 ft 437 kts 225°
2026-05-04 12:28 34.43604 -95.27489 35998 ft 437 kts 225°
2026-05-04 12:29 34.38930 -95.32203 35995 ft 437 kts 225°
2026-05-04 12:29 34.34248 -95.36911 35992 ft 437 kts 225°
2026-05-04 12:30 34.29561 -95.41610 35999 ft 438 kts 225°
2026-05-04 12:30 34.27188 -95.43995 35784 ft 449 kts 225°
2026-05-04 12:30 34.24774 -95.46424 35316 ft 454 kts 225°
2026-05-04 12:31 34.22339 -95.48868 34658 ft 453 kts 225°
2026-05-04 12:31 34.19936 -95.51273 33744 ft 457 kts 224°
2026-05-04 12:31 34.17501 -95.53697 33336 ft 450 kts 224°
2026-05-04 12:31 34.15088 -95.56096 32693 ft 448 kts 224°
2026-05-04 12:32 34.12671 -95.58501 31862 ft 450 kts 224°
2026-05-04 12:32 34.07829 -95.63331 30265 ft 452 kts 224°
2026-05-04 12:32 34.05411 -95.65739 29633 ft 449 kts 224°
2026-05-04 12:33 34.03016 -95.68117 29049 ft 444 kts 224°
2026-05-04 12:33 34.00643 -95.70467 28463 ft 439 kts 224°
2026-05-04 12:33 33.98298 -95.72791 27893 ft 433 kts 224°
2026-05-04 12:33 33.95983 -95.75085 27329 ft 428 kts 224°
2026-05-04 12:34 33.93711 -95.77343 27087 ft 416 kts 224°
2026-05-04 12:34 33.91506 -95.79547 26653 ft 409 kts 224°
2026-05-04 12:34 33.89329 -95.81734 26127 ft 405 kts 224°
2026-05-04 12:34 33.87176 -95.83896 25508 ft 399 kts 224°
2026-05-04 12:35 33.85058 -95.86013 24739 ft 392 kts 223°
2026-05-04 12:35 33.82989 -95.88074 24285 ft 389 kts 223°
2026-05-04 12:35 33.80916 -95.90138 23832 ft 386 kts 223°
2026-05-04 12:35 33.78856 -95.92180 23380 ft 382 kts 223°
2026-05-04 12:36 33.76802 -95.94207 22925 ft 378 kts 223°
2026-05-04 12:36 33.74769 -95.96203 22463 ft 375 kts 223°
2026-05-04 12:36 33.72757 -95.98176 22018 ft 372 kts 223°
2026-05-04 12:36 33.70756 -96.00138 21553 ft 369 kts 223°
2026-05-04 12:37 33.68785 -96.02076 21093 ft 366 kts 223°
2026-05-04 12:37 33.66823 -96.04007 20620 ft 363 kts 223°
2026-05-04 12:37 33.64874 -96.05926 20148 ft 360 kts 223°
2026-05-04 12:37 33.62971 -96.07804 19668 ft 358 kts 223°
2026-05-04 12:38 33.61032 -96.09719 19183 ft 355 kts 223°
2026-05-04 12:38 33.59149 -96.11573 18685 ft 353 kts 222°
2026-05-04 12:38 33.57254 -96.13431 18217 ft 350 kts 223°
2026-05-04 12:38 33.55362 -96.15286 17730 ft 350 kts 222°
2026-05-04 12:39 33.53484 -96.17126 17241 ft 348 kts 222°
2026-05-04 12:39 33.51619 -96.18954 16758 ft 346 kts 222°
2026-05-04 12:39 33.49759 -96.20774 16276 ft 343 kts 222°
2026-05-04 12:39 33.47911 -96.22577 15795 ft 341 kts 222°
2026-05-04 12:40 33.46076 -96.24366 15325 ft 339 kts 222°
2026-05-04 12:40 33.44315 -96.26219 14833 ft 335 kts 229°
2026-05-04 12:40 33.42790 -96.28316 14372 ft 333 kts 231°
2026-05-04 12:40 33.41291 -96.30397 13937 ft 329 kts 231°
2026-05-04 12:41 33.40296 -96.31772 13596 ft 329 kts 231°
2026-05-04 12:41 33.38801 -96.33833 13185 ft 326 kts 231°
2026-05-04 12:41 33.37311 -96.35880 12734 ft 324 kts 231°
2026-05-04 12:41 33.35827 -96.37914 12290 ft 323 kts 231°
2026-05-04 12:42 33.34376 -96.39902 12172 ft 311 kts 231°
2026-05-04 12:42 33.33039 -96.41876 12024 ft 300 kts 239°
2026-05-04 12:42 33.32133 -96.44078 11751 ft 293 kts 252°
2026-05-04 12:42 33.31496 -96.46383 11415 ft 291 kts 253°
2026-05-04 12:43 33.30860 -96.48679 11093 ft 289 kts 252°
2026-05-04 12:43 33.30234 -96.50926 10926 ft 281 kts 252°
2026-05-04 12:43 33.29625 -96.53100 10619 ft 279 kts 252°
2026-05-04 12:43 33.29010 -96.55296 10231 ft 280 kts 253°
2026-05-04 12:44 33.28659 -96.57577 9899 ft 277 kts 267°
2026-05-04 12:44 33.28569 -96.59883 9539 ft 278 kts 267°
2026-05-04 12:44 33.28465 -96.62177 9195 ft 277 kts 266°
2026-05-04 12:44 33.28353 -96.64467 8861 ft 277 kts 266°
2026-05-04 12:45 33.28243 -96.66744 8525 ft 274 kts 266°
2026-05-04 12:45 33.28134 -96.69019 8243 ft 272 kts 266°
2026-05-04 12:45 33.28025 -96.71277 7937 ft 272 kts 266°
2026-05-04 12:45 33.27917 -96.73525 7603 ft 271 kts 266°
2026-05-04 12:46 33.27813 -96.75745 7439 ft 263 kts 266°
2026-05-04 12:46 33.27713 -96.77902 7188 ft 256 kts 266°
2026-05-04 12:46 33.27615 -96.80010 6682 ft 253 kts 265°
2026-05-04 12:46 33.27515 -96.82100 6250 ft 249 kts 265°
2026-05-04 12:47 33.27419 -96.84120 5978 ft 246 kts 265°
2026-05-04 12:47 33.27337 -96.86147 5821 ft 244 kts 266°
2026-05-04 12:47 33.27264 -96.88155 5371 ft 241 kts 265°
2026-05-04 12:47 33.27194 -96.90156 4864 ft 239 kts 265°
2026-05-04 12:48 33.27123 -96.92174 4103 ft 248 kts 265°
2026-05-04 12:48 33.27053 -96.94280 3848 ft 257 kts 265°
2026-05-04 12:48 33.26988 -96.96429 3606 ft 259 kts 265°
2026-05-04 12:48 33.26912 -96.98582 3373 ft 260 kts 261°
2026-05-04 12:49 33.26333 -97.00564 3129 ft 251 kts 237°
2026-05-04 12:49 33.25258 -97.02181 2878 ft 247 kts 219°
2026-05-04 12:49 33.23782 -97.03150 2629 ft 241 kts 195°
2026-05-04 12:49 33.22149 -97.03414 2461 ft 233 kts 185°
2026-05-04 12:50 33.20580 -97.03566 2415 ft 219 kts 185°
2026-05-04 12:50 33.19126 -97.03698 2408 ft 206 kts 185°
2026-05-04 12:50 33.17703 -97.03820 2407 ft 204 kts 185°
2026-05-04 12:50 33.16285 -97.03941 2410 ft 204 kts 185°
2026-05-04 12:51 33.14871 -97.04060 2410 ft 205 kts 184°
2026-05-04 12:51 33.13451 -97.04179 2409 ft 204 kts 184°
2026-05-04 12:51 33.12032 -97.04299 2410 ft 204 kts 184°
2026-05-04 12:51 33.10618 -97.04421 2416 ft 204 kts 185°
2026-05-04 12:52 33.09201 -97.04579 2421 ft 204 kts 189°
2026-05-04 12:52 33.07809 -97.04896 2424 ft 203 kts 192°
2026-05-04 12:52 33.06436 -97.05224 2420 ft 196 kts 188°
2026-05-04 12:52 33.05103 -97.05354 2418 ft 190 kts 183°
2026-05-04 12:53 33.03809 -97.05391 2420 ft 185 kts 181°
2026-05-04 12:53 33.02589 -97.05403 2432 ft 166 kts 181°
2026-05-04 12:53 33.01489 -97.05411 2414 ft 151 kts 181°
2026-05-04 12:53 33.00461 -97.05417 2312 ft 144 kts 181°
2026-05-04 12:54 32.99488 -97.05423 2179 ft 137 kts 181°
2026-05-04 12:54 32.98551 -97.05429 2003 ft 134 kts 181°
2026-05-04 12:54 32.97619 -97.05433 1827 ft 134 kts 181°
2026-05-04 12:54 32.96682 -97.05438 1654 ft 135 kts 180°
2026-05-04 12:55 32.95750 -97.05443 1472 ft 133 kts 180°
2026-05-04 12:55 32.94815 -97.05448 1294 ft 135 kts 180°
2026-05-04 12:55 32.93895 -97.05452 1111 ft 135 kts 181°
2026-05-04 12:55 32.92944 -97.05458 935 ft 135 kts 180°
2026-05-04 12:56 32.92012 -97.05462 755 ft 134 kts 181°
2026-05-04 12:56 32.91086 -97.05465 624 ft 126 kts 180°
2026-05-04 12:56 32.90398 -97.05470 603 ft 64 kts 180°
2026-05-04 12:56 32.90041 -97.05452 603 ft 43 kts 162°
2026-05-04 12:57 32.89810 -97.05310 605 ft 17 kts 150°
2026-05-04 12:57 32.89760 -97.05201 602 ft 13 kts 93°
2026-05-04 12:57 32.89760 -97.05081 603 ft 16 kts 90°
2026-05-04 12:57 32.89759 -97.04943 602 ft 18 kts 90°
2026-05-04 12:58 32.89656 -97.04888 599 ft 20 kts 176°
2026-05-04 12:58 32.89507 -97.04888 598 ft 23 kts 181°
2026-05-04 12:58 32.89339 -97.04889 596 ft 26 kts 181°
2026-05-04 12:58 32.89203 -97.04891 592 ft 11 kts 180°
2026-05-04 12:59 32.89112 -97.04892 591 ft 15 kts 180°
2026-05-04 12:59 32.89002 -97.04890 591 ft 17 kts 180°
2026-05-04 12:59 32.88894 -97.04887 589 ft 15 kts 179°
2026-05-04 12:59 32.88773 -97.04888 587 ft 19 kts 186°
2026-05-04 13:00 32.88632 -97.04894 589 ft 21 kts 176°
2026-05-04 13:00 32.88604 -97.04831 588 ft 11 kts 83°
2026-05-04 13:00 32.88606 -97.04631 589 ft 28 kts 90°
2026-05-04 13:00 32.88605 -97.04395 595 ft 28 kts 89°
2026-05-04 13:01 32.88605 -97.04169 601 ft 28 kts 90°
2026-05-04 13:01 32.88603 -97.03928 601 ft 30 kts 90°
2026-05-04 13:01 32.88604 -97.03695 587 ft 29 kts 90°
2026-05-04 13:01 32.88663 -97.03564 584 ft 13 kts 348°
2026-05-04 13:02 32.88748 -97.03581 584 ft 0 kts
2026-05-04 13:02 32.88760 -97.03578 584 ft 3 kts 12°
2026-05-04 13:02 32.88786 -97.03562 584 ft 5 kts 36°
2026-05-04 13:02 32.88815 -97.03535 584 ft 0 kts 38°
2026-05-04 13:03 32.88815 -97.03529 584 ft 4 kts 74°
2026-05-04 13:03 32.88800 -97.03521 584 ft 2 kts 236°
2026-05-04 13:03 32.88782 -97.03568 584 ft 8 kts 244°
2026-05-04 13:03 32.88810 -97.03608 584 ft 2 kts 326°
2026-05-04 13:04 32.88820 -97.03619 584 ft 0 kts 322°